CZ-6A DEB

Satellite information

Favourite Embed

Satellite Type and Status

DEBRISIN ORBIT

Key statistics

Satellite CZ-6A DEB at a glance.

Uptime

1129

Days in orbit

Revolutions

≈ 14.6

Per day

Orbit

SSO

Sun Synchronous Orbit

Inclination

98.7

Latest

Satellite identification and parameters

Extended collection of information and parameters for CZ-6A DEB.

Object identification

Identified? True

Debris? True

Object name: CZ-6A DEB

International designator: 2022-151AF

Object number (NORAD): 54288

Object ID (CCSDS): 54288

Country: PEOPLES REPUBLIC OF CHINA (PRC)

Current information (Y/N): Y

RCS size: SMALL

Orbital parameters

Period: 98.48 minutes

Inclination: 98.6796 deg

SMA: 7064.124 km

Apoapsis: 782.037 km

Periapsis: 589.942 km

RAAN: 61.0238 deg

Eccentricy: 0.01359653

Argument of periapsis: 80.1383 deg

Mean anomaly: 281.5136 deg

Mean motion: 14.62228527 rev/day

Mean motion (dot): 0.00004987 rev/day2

B* drag term: 0.00087643686 1/REarth

Two-line elements (TLE)

Creation date: Dec. 14, 2025, 3:07 a.m.

Reference frame: TEME

Reference center: EARTH

Epoch: Dec. 13, 2025, 4:09 p.m. UTC

TLE line 0: 0 CZ-6A DEB

TLE line 1: 1 54288U 22151AF 25347.67307961 .00004987 00000-0 87644-3 0 9998

TLE line 2: 2 54288 98.6796 61.0238 0135965 80.1383 281.5136 14.62228527163461

Live tracking on map

Real-time ground track for satellite CZ-6A DEB.

In-orbit conjunctions

A list of the most updated potential collisions computed for object CZ-6A DEB.

Target Orbit TCA Probability of collision Miss distance Type
COSMOS 158 LEO 2025-10-02 06:15:44 0.0004459148 211.0 (m) PAYLOAD
COSMOS 1954 LEO 2025-02-02 03:59:53 0.0002329206 668.0 (m) PAYLOAD

Associated space launch

Chinese satellite reported for atmospheric/ocean/environmental/spatial parameter research purposes, details TBD.

CZ-6A DEB was lifted into orbit during the mission ‘Long March 6A | Yunhai 3’, on board a Long March 6A space rocket.

The launch took place on Nov. 11, 2022, 10:52 p.m. from Launch Complex 9A.

For more information about the launch, click the button.

Launch to space Long March 6A | Yunhai 3
Long March 6A | Yunhai 3

Agency: N/A

Status: Launch Successful

Launch date: Nov. 11, 2022, 10:52 p.m. UTC

Rocket: Long March 6A

Launch pad: Launch Complex 9A

Location: Taiyuan Satellite Launch Center, People's Republic of China

...

Latest news about this satellite

There are no fresh news available about this satellite. Check back as we update our databases every day.


Newsletter sign-up

Weekly statistics, charts and insights to help you stay on top of the space industry.